Find Globalstar M002

NORAD ID: 25164 Int'l Des: 1998-008 Owner: GLOBT Country: US Constellation: globalstar operational
LEOCIRCULAR

Live-Position

3D-Globus wird geladen...

Über Globalstar M002

Beschreibung wird geladen...

Nächste Überflüge

Passes for default location (London). Set your location on the main map for personalized predictions.

Höhenverlauf

Loading altitude history...

Zweizeiliger Elementsatz

1 25164U 98008C 26119.85549887 -.00000054 00000-0 43647-3 0 9993
2 25164 51.9988 166.2059 0001039 2.5184 357.5641 11.61516073220862
Epoch: 29. Apr. 2026 • Age: 11 hours

Aktueller Status

Höhe 1859.9 km
Geschwindigkeit 6.96 km/s
Subsatellitenpunkt 35.47°N, 126.44°W
Startdatum 14. Feb. 1998
Alter 28.2 years
Typ communications

Technische Details

Klassifizierung Payload
Masse 450.00 kg
Trockenmasse 380.00 kg
Gesamtmasse 450.00 kg
Länge 1.50 m
Durchmesser 0.60 m
Spannweite 12.00 m
Form Box + 2 Pan
Hersteller LOR
Bus-Typ LS-400
Phasenstatus In Orbit
Besitzer/Staat GLOBT/US

Most Searched